CW5430 Weather Reports


Display with metric or nautical units.
time (UTC)temp
F
wind
direction
speed
MPH
gust
MPH
rain 1hr
in
rain 24hr
in
rain mn
in
humidity
%
barometer
mb
20210726002845 82 209 0.0 5.0 0.00 0.00 0.00 75 1011.5
20210726001829 82 226 0.0 5.0 0.00 0.00 0.00 74 1011.4
20210726000816 83 205 3.0 5.0 0.00 0.00 0.00 73 1011.3
20210725235835 83 209 1.0 2.0 0.00 0.00 0.00 74 1011.0
20210725234831 83 209 1.0 2.0 0.00 0.00 0.00 73 1011.0
20210725233802 84 211 0.0 4.0 0.00 0.00 0.00 72 1010.9
20210725232820 84 253 1.0 2.0 0.00 0.00 0.00 72 1011.0
20210725231814 84 236 1.0 5.0 0.00 0.00 0.00 71 1010.9
20210725230810 84 242 3.0 6.0 0.00 0.00 0.00 71 1011.1
20210725225737 84 207 0.0 7.0 0.00 0.00 0.00 71 1011.0
20210725224720 84 210 1.0 7.0 0.00 0.00 0.00 70 1010.8
20210725223655 85 226 0.0 6.0 0.00 0.00 0.00 71 1010.9
20210725222643 85 210 7.0 6.0 0.00 0.00 0.00 71 1010.7
20210725221640 85 256 0.0 7.0 0.00 0.00 0.00 70 1011.0
20210725220640 86 213 1.0 7.0 0.00 0.00 0.00 70 1011.1
20210725215611 85 253 1.0 6.0 0.00 0.00 0.00 69 1010.9
20210725214549 85 240 3.0 6.0 0.00 0.00 0.00 69 1011.0
20210725213557 85 250 1.0 6.0 0.00 0.00 0.00 69 1011.1
20210725212621 85 255 1.0 4.0 0.00 0.00 0.00 70 1011.1
20210725211635 85 153 0.0 7.0 0.00 0.00 0.00 71 1011.3
20210725210615 86 191 1.0 7.0 0.00 0.00 0.00 69 1011.3
20210725205605 85 239 1.0 11.0 0.00 0.00 0.00 68 1011.4
20210725204605 86 205 3.0 11.0 0.00 0.00 0.00 67 1011.5
20210725203534 87 211 8.0 8.0 0.00 0.00 0.00 64 1011.5
20210725202543 87 210 3.0 8.0 0.00 0.00 0.00 65 1011.4
20210725201511 86 133 0.0 7.0 0.00 0.00 0.00 67 1011.4
20210725200522 85 218 3.0 7.0 0.00 0.00 0.00 65 1011.5
20210725195514 86 184 1.0 10.0 0.00 0.00 0.00 68 1011.5
20210725194502 86 147 0.0 10.0 0.00 0.00 0.00 67 1011.3
20210725193519 85 204 3.0 7.0 0.00 0.00 0.00 67 1011.3
20210725192533 85 222 3.0 6.0 0.00 0.00 0.00 68 1011.6
20210725191513 84 215 0.0 7.0 0.00 0.00 0.00 69 1011.8
20210725190505 84 215 1.0 9.0 0.00 0.00 0.00 69 1011.8
20210725185450 85 205 3.0 9.0 0.00 0.00 0.00 67 1011.9
20210725184433 85 104 0.0 5.0 0.00 0.00 0.00 68 1011.9
20210725183417 84 259 1.0 5.0 0.00 0.00 0.00 69 1011.9
20210725182427 84 225 1.0 6.0 0.00 0.00 0.00 69 1012.1
20210725181424 84 198 0.0 6.0 0.00 0.00 0.00 69 1012.3
20210725180421 83 208 1.0 9.0 0.00 0.00 0.00 70 1012.3
20210725175413 83 216 0.0 9.0 0.00 0.00 0.00 69 1012.2
20210725174341 83 136 3.0 10.0 0.00 0.00 0.00 70 1012.3
20210725173313 83 238 1.0 10.0 0.00 0.00 0.00 69 1012.4
20210725172325 84 277 3.0 7.0 0.00 0.00 0.00 69 1012.4
20210725171344 83 219 0.0 9.0 0.00 0.00 0.00 70 1012.5
20210725170335 83 194 4.0 9.0 0.00 0.00 0.00 71 1012.7
20210725165337 82 217 1.0 6.0 0.00 0.00 0.00 72 1012.8
20210725164351 82 171 3.0 8.0 0.00 0.00 0.00 72 1013.0
20210725163322 82 217 4.0 9.0 0.00 0.00 0.00 72 1013.0
20210725162306 81 233 1.0 9.0 0.00 0.00 0.00 72 1013.0
20210725161306 81 264 1.0 5.0 0.00 0.00 0.00 75 1013.1
20210725160239 80 189 3.0 6.0 0.00 0.00 0.00 74 1013.2
20210725155249 80 219 1.0 7.0 0.00 0.00 0.00 76 1013.0
20210725154256 80 132 3.0 8.0 0.00 0.00 0.00 78 1013.0
20210725153235 79 165 0.0 8.0 0.00 0.00 0.00 78 1013.0
20210725152250 79 205 0.0 5.0 0.00 0.00 0.00 78 1013.3
20210725151216 78 229 1.0 5.0 0.00 0.00 0.00 79 1013.3
20210725150157 78 214 0.0 8.0 0.00 0.00 0.00 80 1013.3
20210725145221 78 149 1.0 8.0 0.00 0.00 0.00 82 1013.3
20210725144151 77 131 3.0 6.0 0.00 0.00 0.00 81 1013.5
20210725143145 77 151 3.0 10.0 0.00 0.00 0.00 82 1013.5
20210725142141 76 191 1.0 10.0 0.00 0.00 0.00 82 1013.5
20210725141135 76 222 4.0 7.0 0.00 0.00 0.00 82 1013.6
20210725140122 76 237 3.0 5.0 0.00 0.00 0.00 84 1013.8
20210725135111 75 209 0.0 6.0 0.00 0.00 0.00 85 1014.0
20210725134119 74 206 1.0 6.0 0.00 0.00 0.00 87 1014.0
20210725133050 74 258 3.0 6.0 0.00 0.00 0.00 86 1014.2
20210725132036 74 220 1.0 8.0 0.00 0.00 0.00 87 1014.1
20210725131037 73 212 0.0 8.0 0.00 0.00 0.00 87 1014.2
20210725130030 73 199 1.0 8.0 0.00 0.00 0.00 88 1014.0
20210725125008 73 212 0.0 7.0 0.00 0.00 0.00 88 1014.2
20210725124001 72 217 1.0 7.0 0.00 0.00 0.00 89 1014.2
20210725123014 72 210 3.0 7.0 0.00 0.00 0.00 89 1014.3
20210725122032 72 201 1.0 7.0 0.00 0.00 0.00 89 1014.2
20210725121045 72 208 1.0 5.0 0.00 0.00 0.00 89 1014.2
20210725120110 72 131 1.0 7.0 0.00 0.00 0.00 89 1014.2
20210725115109 71 96 0.0 7.0 0.00 0.00 0.00 89 1014.2
20210725114125 71 187 1.0 5.0 0.00 0.00 0.00 88 1014.2
20210725113058 71 183 1.0 6.0 0.00 0.00 0.00 88 1014.2
20210725112034 71 147 7.0 6.0 0.00 0.00 0.00 87 1014.4
20210725111034 71 184 1.0 4.0 0.00 0.00 0.00 87 1014.4
20210725110025 71 155 0.0 9.0 0.00 0.00 0.00 86 1014.3
20210725105015 71 151 3.0 9.0 0.00 0.00 0.00 85 1014.1
20210725103946 71 196 1.0 6.0 0.00 0.00 0.00 85 1014.2
20210725102940 71 134 6.0 7.0 0.00 0.00 0.00 84 1014.3
20210725101952 71 137 6.0 7.0 0.00 0.00 0.00 84 1014.2
20210725101007 71 157 1.0 5.0 0.00 0.00 0.00 84 1014.1
20210725095941 71 170 1.0 9.0 0.00 0.00 0.00 83 1014.2
20210725094928 71 139 7.0 9.0 0.00 0.00 0.00 83 1014.2
20210725093953 71 141 3.0 7.0 0.00 0.00 0.00 83 1014.2
20210725092955 71 183 1.0 5.0 0.00 0.00 0.00 83 1014.4
20210725091949 71 139 1.0 7.0 0.00 0.00 0.00 83 1014.4
20210725090926 71 137 3.0 8.0 0.00 0.00 0.00 82 1014.3
20210725085902 71 140 4.0 11.0 0.00 0.00 0.00 82 1014.4
20210725084920 71 148 4.0 11.0 0.00 0.00 0.00 81 1014.2
20210725083903 71 149 6.0 10.0 0.00 0.00 0.00 81 1014.2
20210725082845 71 165 3.0 8.0 0.00 0.00 0.00 81 1014.5
20210725081853 71 146 1.0 8.0 0.00 0.00 0.00 81 1014.5
20210725080820 71 141 3.0 8.0 0.00 0.00 0.00 81 1014.7
20210725075811 71 190 3.0 8.0 0.00 0.00 0.00 81 1014.8
20210725074747 71 155 3.0 7.0 0.00 0.00 0.00 82 1015.0
20210725073722 71 142 6.0 7.0 0.00 0.00 0.00 82 1015.1
20210725072726 71 144 6.0 6.0 0.00 0.00 0.00 81 1015.4
20210725071725 71 175 3.0 6.0 0.00 0.00 0.00 80 1015.5
20210725070718 71 189 0.0 4.0 0.00 0.00 0.00 79 1015.6
20210725065714 72 158 0.0 8.0 0.00 0.00 0.00 77 1015.7
20210725064703 72 159 1.0 8.0 0.00 0.00 0.00 75 1015.7
20210725063635 72 134 3.0 8.0 0.00 0.00 0.00 72 1016.0
20210725062616 72 208 1.0 5.0 0.00 0.00 0.00 71 1015.8
20210725061547 73 185 1.0 11.0 0.00 0.00 0.00 69 1015.8
20210725060514 73 183 3.0 11.0 0.00 0.00 0.00 68 1016.1
20210725055506 74 203 1.0 9.0 0.00 0.00 0.00 65 1016.3
20210725054528 74 207 3.0 7.0 0.00 0.00 0.00 63 1016.2
20210725053501 74 167 1.0 6.0 0.00 0.00 0.00 63 1016.4
20210725052520 74 202 3.0 7.0 0.00 0.00 0.00 62 1016.4
20210725051503 75 201 3.0 7.0 0.00 0.00 0.00 62 1016.4
20210725050450 75 208 3.0 6.0 0.00 0.00 0.00 61 1016.5
20210725045457 75 232 1.0 10.0 0.00 0.00 0.00 61 1016.6
20210725044513 75 200 1.0 10.0 0.00 0.00 0.00 60 1016.6
20210725043532 75 209 1.0 6.0 0.00 0.00 0.00 60 1016.6
20210725042540 75 207 0.0 6.0 0.00 0.00 0.00 62 1016.6
20210725041544 75 229 0.0 5.0 0.00 0.00 0.00 65 1016.7
20210725040508 75 187 0.0 4.0 0.00 0.00 0.00 65 1016.8
20210725035508 75 213 3.0 4.0 0.00 0.00 0.00 67 1016.7
20210725034503 75 187 3.0 7.0 0.00 0.00 0.00 68 1016.7
20210725033452 75 178 0.0 7.0 0.00 0.00 0.00 68 1016.8
20210725032507 75 199 1.0 5.0 0.00 0.00 0.00 67 1016.7
20210725031444 75 175 3.0 5.0 0.00 0.00 0.00 67 1016.7
20210725030436 75 206 1.0 5.0 0.00 0.00 0.00 67 1016.5
20210725025501 75 232 1.0 6.0 0.00 0.00 0.00 66 1016.8
20210725024456 76 205 0.0 6.0 0.00 0.00 0.00 65 1016.9
20210725023429 76 176 3.0 5.0 0.00 0.00 0.00 64 1017.0
20210725022356 76 202 1.0 6.0 0.00 0.00 0.00 63 1017.0
20210725021418 76 221 0.0 6.0 0.00 0.00 0.00 62 1017.1
20210725020413 76 218 3.0 5.0 0.00 0.00 0.00 61 1017.0
20210725015350 77 183 0.0 6.0 0.00 0.00 0.00 60 1017.1
20210725014414 77 147 0.0 6.0 0.00 0.00 0.00 60 1017.3
20210725013345 77 214 1.0 5.0 0.00 0.00 0.00 59 1017.3
20210725012357 77 183 3.0 5.0 0.00 0.00 0.00 58 1017.2
20210725011332 77 217 1.0 9.0 0.00 0.00 0.00 57 1017.3
20210725010334 77 216 3.0 9.0 0.00 0.00 0.00 57 1017.1
20210725005350 78 215 1.0 7.0 0.00 0.00 0.00 56 1017.1
20210725004317 78 203 3.0 7.0 0.00 0.00 0.00 56 1017.0